�ϑ��N����,2020/9/28,,,
�ϑ���,�� �͐^,,,
�ϑ��n�_,30,,,
���x�v�ԍ�,A003,,,
,,,,
����,�C��,����,����,���l
9:30:00,22,0,0,���A
9:31:00,21.9,2,10,
9:32:00,21.8,0,0,
9:33:00,21.8,0,0,
9:34:00,21.8,0,0,�N�����Ă��鎺�O�@�̑��݂ɋC�t��
9:35:00,21.8,1,5,
9:36:00,21.8,0,0,
9:37:00,21.8,0,0,
9:38:00,22,8,5,
9:39:00,22,0,0,
9:40:00,22.1,8,10,
9:41:00,22.1,7,-999,
9:42:00,22,0,0,
9:43:00,21.9,8,10,
9:44:00,21.9,6,5,�A�N�V�f���g�ɂ��A���ɂ��Ă͒n�\�Ōv��
9:45:00,21.8,0,0,
9:46:00,21.7,0,0,
9:47:00,21.7,0,0,
9:48:00,21.7,0,0,
9:49:00,21.7,8,5,
9:50:00,21.8,8,5,
9:51:00,21.8,0,0,
9:52:00,21.8,0,0,
9:53:00,21.8,0,0,
9:54:00,21.8,0,0,
9:55:00,21.9,7,15,
9:56:00,-999,-999,-999,���x�v�㕔�j��
9:57:00,-999,-999,-999,
9:58:00,-999,-999,-999,
9:59:00,22,0,0,
10:00:00,22,0,0,
10:01:00,22,0,0,
10:02:00,22,0,0,
10:03:00,22,0,0,
10:04:00,22.1,3,0,
10:05:00,22,7,5,
10:06:00,22,0,0,
10:07:00,22,0,0,
10:08:00,22,0,0,
10:09:00,22,0,0,
10:10:00,22,0,0,
10:11:00,22.1,7,10,
10:12:00,22.1,0,0,
10:13:00,22,7,20,
10:14:00,21.9,7,5,
10:15:00,22,0,0,
10:16:00,21.9,7,5,
10:17:00,22,7,15,
10:18:00,22,0,0,
10:19:00,22,0,0,
10:20:00,22,7,10,
10:21:00,22,0,0,
10:22:00,22,7,15,
10:23:00,22,7,10,
10:24:00,22.1,7,5,
10:25:00,22.1,0,0,
10:26:00,22.1,0,0,���������ɂ��āA�앗����������Ղ�w�`�ɂȂ��Ă������ɋC�t��(�����𑵂���ׁA�w�`�͕ύX����)
10:27:00,22.1,0,0,
10:28:00,22.1,0,0,
10:29:00,22.2,0,0,
10:30:00,22.3,0,0,
10:31:00,22.5,0,0,
10:32:00,22.7,0,0,
10:33:00,22.7,7,5,
10:34:00,22.8,0,0,
10:35:00,22.8,0,0,
10:36:00,22.8,0,0,
10:37:00,22.8,0,0,
10:38:00,22.8,0,0,
10:39:00,22.8,0,0,
10:40:00,22.8,7,5,
10:41:00,22.8,0,0,
10:42:00,22.7,0,0,
10:43:00,22.8,7,5,
10:44:00,22.8,7,5,
10:45:00,22.8,0,0,
10:46:00,23,0,0,�܂��Ă���
10:47:00,23.2,0,0,
10:48:00,23.2,0,0,
10:49:00,23.2,0,0,
10:50:00,23.2,7,5,
10:51:00,23.2,7,5,
10:52:00,23.3,0,0,
10:53:00,23.3,0,0,
10:54:00,23.3,0,0,
10:55:00,23.2,7,5,
10:56:00,23.2,0,0,
10:57:00,23.2,0,0,
10:58:00,23.2,0,0,
10:59:00,23.2,7,5,
11:00:00,23.2,0,0,
11:01:00,23.2,0,0,
11:02:00,23.2,0,0,
11:03:00,23.2,7,5,
11:04:00,23.5,0,0,
11:05:00,23.6,0,0,
11:06:00,23.6,0,0,
11:07:00,23.6,0,0,
11:08:00,23.8,0,0,
11:09:00,23.8,0,0,
11:10:00,23.8,0,0,
11:11:00,24,0,0,
11:12:00,24,0,0,
11:13:00,24.1,0,0,
11:14:00,24.2,0,0,
11:15:00,24.2,0,0,
11:16:00,24.1,7,5,
11:17:00,24.1,0,0,
11:18:00,24,0,0,
11:19:00,24,7,5,
11:20:00,23.9,0,0,
11:21:00,23.9,3,5,
11:22:00,23.5,0,0,
11:23:00,23.6,7,5,
11:24:00,23.5,7,5,
11:25:00,23.2,7,5,
11:26:00,23.2,7,5,
11:27:00,23.2,0,0,
11:28:00,23.2,0,0,
11:29:00,23.5,0,0,
11:30:00,23.5,0,0,
